Regional Weather Roundup
Issued by NWS

Home | Current Version | Previous Version | Text Only | Print | Product List | Glossary On
Versions: 1 2 3 4 5 6 7 8 9 10 11 12 13 14 15 16 17 18 19 20 21 22 23 24 25 26 27 28 29 30 31 32 33 34 35 36 37 38 39 40 41 42 43 44 45 46 47 48 49 50
000
ASCA44 KEWX 212020
RWRMX

LATIN AMERICA AND CARIBBEAN REGIONAL WEATHER ROUNDUP
NATIONAL WEATHER SERVICE AUSTIN/SAN ANTONIO TX
300 PM CDT SUN SEP 21 2014

NOTE: "FAIR" INDICATED FEW OR NO CLOUDS BELOW 12,000 FEET WITH NO
SIGNIFICANT WEATHER AND/OR OBSTRUCTIONS TO VISIBILITY.

BAJA CALIFORNIA

CITY           SKY/WX    TMP DP  RH WIND       PRES   REMARKS
LORETO           N/A    N/A N/A N/A MISG        N/A
LA PAZ           N/A    N/A N/A N/A MISG        N/A
MEXICALI       SUNNY     97  54  23 CALM      29.84  HX  94
S.J. DEL CABO  PTSUNNY   82  79  89 SE12      29.87  HX  93
TIJUANA        SUNNY     77  55  47 W15       29.97

NORTHWESTERN MEXICO

CITY           SKY/WX    TMP DP  RH WIND       PRES   REMARKS
CULIACAN       PTSUNNY   90  77  66 S7        29.89  HX 102
DURANGO        PTSUNNY   81  50  34 N3        30.19F
GUAYMAS        MOSUNNY   90  79  70 SW16      29.83  HX 105
HERMOSILLO     PTSUNNY   93  75  55 S5        29.90  HX 104
CD. JUAREZ     MOSUNNY   84  66  54 S5        30.07F
LOS MOCHIS     PTSUNNY   86  73  66 S9        29.88F HX  93
OBREGON        PTSUNNY   93  70  46 SW5       29.85  HX  99

NORTHEASTERN MEXICO

CITY           SKY/WX    TMP DP  RH WIND       PRES   REMARKS
CHIHUAHUA      PTSUNNY   82  61  47 E6        30.13
MATAMOROS      PTSUNNY   77  77 100 E7        29.96
MONCLOVA       PTSUNNY  N/A N/A N/A NE8       30.00
MONTERREY      PTSUNNY   82  70  65 E9        29.97F
NUEVO LAREDO   PTSUNNY   84  75  74 E12       29.97  HX  92
PIEDRAS NEGRAS PTSUNNY   88  70  55 E12       30.00F HX  92
REYNOSA        PTSUNNY   88  72  58 NW7       29.92  HX  94
SALTILLO       PTSUNNY   77  64  65 N12       30.15F
TORREON        PTSUNNY   84  61  45 NE13      30.07
CD. VICTORIA   PTSUNNY   88  72  58 CALM      29.93  HX  94

WESTERN MEXICO

CITY           SKY/WX    TMP DP  RH WIND       PRES   REMARKS
AGUASCALIENTES PTSUNNY   75  52  43 SW7       30.21
COLIMA         MOSUNNY   79  70  73 W12       29.98F
DEL BAJIO      PTSUNNY   75  59  57 S8        30.24F
GUADALAJARA    PTSUNNY   79  61  53 NE7       30.14
MANZANILLO     MOSUNNY   91  77  62 SW9       29.83  HX 105
MAZATLAN       MOSUNNY   84  73  70 S9        29.86F HX  91
P. VALLARTA    MOSUNNY   88  72  58 S10       29.90F HX  94
URUAPAN        PTSUNNY   73  66  78 SE7       30.15F
ZACATECAS      MOSUNNY   77  54  44 E12       30.25

CENTRAL MEXICO

CITY           SKY/WX    TMP DP  RH WIND       PRES   REMARKS
CUERNAVACA     PTSUNNY   79  63  57 S7        30.09F
MEXICO CITY    PTSUNNY   73  50  43 CALM      30.26F
MORELIA        PTSUNNY   77  59  53 CALM      30.18
POZA RICA      CLOUDY    82  75  78 N12       29.91F
PUEBLA         TSTM      66  63  88 SE21      30.30F
QUERETARO      CLOUDY    75  55  50 N5        30.23F
S. LUIS POTOSI LGT RAIN  70  59  68 CALM      30.20
TAMPICO        PTSUNNY   86  73  66 N9        29.92F HX  93
TOLUCA         TSTM      64  50  59 E10       30.36F VSB 1

SOUTHERN MEXICO

CITY           SKY/WX    TMP DP  RH WIND       PRES   REMARKS
ACAPULCO       PTSUNNY   86  75  70 SW5       29.85F HX  95
B. DE HUATULCO PTSUNNY   86  75  70 SE12      29.91  HX  95
OAXACA         PTSUNNY   77  55  47 N6        30.15F
P. ESCONDIDO   PTSUNNY   84  75  74 S12       30.00F HX  92
VERACRUZ       PTSUNNY   86  77  74 NE8       29.87F HX  97
ZIHUATANEJO    PTSUNNY   86  75  70 SW12      29.86  HX  95

YUCATAN PENINSULA

CITY           SKY/WX    TMP DP  RH WIND       PRES   REMARKS
CAMPECHE       MOSUNNY   93  79  62 S6        29.83F HX 110
CANCUN         PTSUNNY   90  75  62 SE14      29.91F HX 100
CHETUMAL       PTSUNNY   86  77  74 SE18      29.84F HX  97
CD. DEL CARMEN MOSUNNY   88  75  66 N12       29.85  HX  97
COZUMEL        PTSUNNY   84  77  79 SE7       29.90F HX  94
MERIDA         PTSUNNY   93  72  49 CALM      29.86F HX 100
MINATITLAN     MOSUNNY   88  77  70 N14       29.82  HX 100
TAPACHULA      PTSUNNY   84  79  84 SW6       29.87F HX  96
TUX. GUTIERREZ MOSUNNY   86  72  62 CALM      29.90F HX  92
VILLAHERMOSA   PTSUNNY   88  75  66 CALM      29.86F HX  97

CENTRAL AMERICA

CITY           SKY/WX    TMP DP  RH WIND       PRES   REMARKS
BELIZE CITY    MOSUNNY   86  81  84 SE5       29.84F HX 102
MANAGUA        PTCLDY    90  73  58 SE7       29.83S HX  98

CARIBBEAN

CITY           SKY/WX    TMP DP  RH WIND       PRES   REMARKS
ARUBA          MOSUNNY   90  77  66 E20       29.83S HX 102
KINGSTON       MOSUNNY   86  77  74 SE22      29.89F HX  97
NASSAU         MOSUNNY   90  73  58 S7        29.98S HX  98
SAN JUAN       MOSUNNY   86  77  74 E13       29.98R HX  97
SANTO DOMINGO  MOSUNNY   79  75  89 NE5       29.94S
ST. KITTS      MOSUNNY   86  79  79 NE15      29.94S HX  99
ST. MAARTEN    MOSUNNY   88  75  66 NE15      29.94S HX  97

$$




USA.gov is the U.S. government's official web portal to all federal, state and local government web resources and services.